Location: Dackenheim
(49.5215°N, 8.1854°E)
Time: 02:34:36
(UTC+00:00)

AO-91 - Pass Details

Date: 21 March 2026
Orbit: 425 x 637 km, 97.5° (Epoch: 13 April)

Event Time Altitude Azimuth Distance (km) Brightness Sun altitude
Rises 22:24:26 0° 356° (N) 2,947 ? -37.7°
Reaches altitude 10° 22:28:24 10° 320° (NW) 2,008 ? -38.0°
Enters shadow 22:29:17 11° 309° (NW) 1,944 ? -38.0°
